Location: Arrodets-la-Barthe
(43.0306°N, 0.2829°E)
Time: 01:34:05
(UTC+00:00)

Cosmos 2344 - Pass Details

Date: 03 June 2022
Orbit: 1228 x 3015 km, 63.3° (Epoch: 04 July)

Event Time Altitude Azimuth Distance (km) Brightness Sun altitude
Rises 02:04:16 0° 322° (NW) 4,370 6.7 -18.4°
Reaches altitude 10° 02:07:07 10° 330° (NNW) 3,522 6.3 -18.1°
Maximum altitude 02:15:13 41° 40° (NE) 2,326 5.5 -17.3°
Drops below altitude 10° 02:25:59 10° 107° (ESE) 4,678 6.7 -16.2°
Sets 02:30:24 0° 115° (ESE) 5,955 7.2 -15.8°
